Change the Weather History Date:

Sunday, June 23, 2013

  Actual Average Record
Temperature  
Mean Temperature 65 °F -  
Max Temperature 80 °F 76 °F 91 °F (2005)
Min Temperature 50 °F 48 °F 32 °F (1972)
Growing Degree Days 15 (Base 50)    
Moisture  
Dew Point 56 °F    
Average Humidity 84    
Maximum Humidity 100    
Minimum Humidity 51    
Precipitation  
Precipitation 0.02 in - - ()
Sea Level Pressure  
Sea Level Pressure 29.77 in    
Wind  
Wind Speed 5 mph (North)    
Max Wind Speed 16 mph    
Max Gust Speed 25 mph    
Visibility 6 miles    
Events Fog , Rain , Thunderstorm    
Averages and records for this station are not official NWS values.
T = Trace of Precipitation, MM = Missing Value Source: NWS Daily Summary

Daily Weather History Graph

Daily Weather History Graph

Search for Another Location

Airport or City:

Trip Planner

Search our weather history database for the weather conditions in past years. The results will help you decide how hot, cold, wet, or windy it might be!

Date:

Astronomy

Jun. 23, 2013 Rise Set
Actual Time 5:19 AM CDT 9:07 PM CDT
Civil Twilight 4:40 AM CDT 9:46 PM CDT
Nautical Twilight 3:47 AM CDT 10:39 PM CDT
Astronomical Twilight 2:30 AM CDT 11:56 PM CDT
Moon 9:14 PM CDT (6/23) 5:41 AM CDT (6/23)
Length of Visible Light 17h 06m
Length of Day
15h 48m
Full, 100% of the Moon is Illuminated
Jun 23
Full
Jun 29
Last Quarter
Jul 8
New
Jul 15
First Quarter
Jul 22
Full

Hourly Weather History & Observations

Time (CDT) Temp. Heat Index Dew Point Humidity Pressure Visibility Wind Dir Wind Speed Gust Speed Precip Events Conditions
12:08 AM 51.8 °F - 50.0 °F 94% 29.90 in 0.8 mi NE 3.5 mph - N/A   Overcast
12:28 AM 51.8 °F - 50.0 °F 94% 29.90 in 0.5 mi ENE 4.6 mph - N/A Fog Fog
12:48 AM 51.8 °F - 50.0 °F 94% 29.89 in 0.8 mi ENE 3.5 mph - N/A   Overcast
1:08 AM 51.8 °F - 50.0 °F 94% 29.86 in 0.8 mi NE 4.6 mph - N/A   Overcast
1:28 AM 51.8 °F - 51.8 °F 100% 29.84 in 0.5 mi NE 4.6 mph - N/A Fog Fog
1:48 AM 51.8 °F - 51.8 °F 100% 29.84 in 0.8 mi ENE 4.6 mph - N/A   Overcast
2:08 AM 51.8 °F - 51.8 °F 100% 29.85 in 0.8 mi Calm Calm - N/A   Overcast
2:28 AM 51.8 °F - 51.8 °F 100% 29.86 in 1.2 mi NE 4.6 mph - N/A   Overcast
2:48 AM 51.8 °F - 51.8 °F 100% 29.85 in 1.5 mi Calm Calm - N/A   Overcast
3:08 AM 51.8 °F - 51.8 °F 100% 29.84 in 1.8 mi NE 5.8 mph - N/A   Overcast
3:28 AM 51.8 °F - 51.8 °F 100% 29.83 in 1.8 mi NE 8.1 mph - N/A   Overcast
3:48 AM 51.8 °F - 51.8 °F 100% 29.80 in 1.5 mi NE 4.6 mph - N/A   Overcast
4:08 AM 51.8 °F - 51.8 °F 100% 29.81 in 1.5 mi NE 4.6 mph - N/A   Overcast
4:28 AM 51.8 °F - 51.8 °F 100% 29.80 in 1.8 mi NE 3.5 mph - N/A   Overcast
4:48 AM 51.8 °F - 51.8 °F 100% 29.79 in 1.8 mi NE 3.5 mph - N/A   Overcast
5:08 AM 51.8 °F - 51.8 °F 100% 29.79 in 2.5 mi NE 5.8 mph - N/A   Overcast
5:28 AM 51.8 °F - 50.0 °F 94% 29.78 in 2.0 mi NE 5.8 mph - N/A Thunderstorm Overcast
5:48 AM 50.0 °F - 50.0 °F 100% 29.79 in 1.5 mi ENE 3.5 mph - N/A Rain Light Rain
6:08 AM 50.0 °F - 50.0 °F 100% 29.79 in 1.8 mi NE 4.6 mph - 0.01 in Rain , Thunderstorm Thunderstorms and Rain
6:28 AM 50.0 °F - 50.0 °F 100% 29.80 in 2.5 mi Calm Calm - 0.02 in Rain , Thunderstorm Thunderstorms and Rain
6:48 AM 51.8 °F - 50.0 °F 94% 29.80 in 3.0 mi NE 3.5 mph - 0.02 in Rain Heavy Rain
7:08 AM 50.0 °F - 50.0 °F 100% 29.80 in 2.5 mi Calm Calm - N/A Rain , Thunderstorm Heavy Thunderstorms and Rain
7:28 AM 51.8 °F - 51.8 °F 100% 29.73 in 4.0 mi East 9.2 mph 18.4 mph N/A Rain , Thunderstorm Rain
7:48 AM 51.8 °F - 51.8 °F 100% 29.77 in 3.0 mi ENE 3.5 mph - N/A Rain Rain
8:08 AM 51.8 °F - 50.0 °F 94% 29.74 in 5.0 mi Calm Calm - N/A Rain Rain
8:28 AM 51.8 °F - 50.0 °F 94% 29.71 in 5.0 mi NE 4.6 mph - N/A Rain Light Rain
8:48 AM 51.8 °F - 50.0 °F 94% 29.70 in 5.0 mi Calm Calm - N/A   Overcast
9:08 AM 51.8 °F - 51.8 °F 100% 29.70 in 5.0 mi North 3.5 mph - N/A   Overcast
9:28 AM 51.8 °F - 51.8 °F 100% 29.70 in 5.0 mi NE 4.6 mph - N/A   Overcast
9:48 AM 53.6 °F - 51.8 °F 94% 29.69 in 5.0 mi NE 6.9 mph - N/A   Overcast
10:08 AM 53.6 °F - 53.6 °F 100% 29.69 in 7.0 mi NE 3.5 mph - N/A   Overcast
10:28 AM 53.6 °F - 53.6 °F 100% 29.70 in 7.0 mi Calm Calm - N/A   Overcast
10:48 AM 55.4 °F - 55.4 °F 100% 29.69 in 7.0 mi NE 3.5 mph - N/A   Overcast
11:08 AM 59.0 °F - 57.2 °F 94% 29.69 in 10.0 mi NE 3.5 mph - N/A   Overcast
11:28 AM 59.0 °F - 59.0 °F 100% 29.70 in 7.0 mi Calm Calm - N/A Rain Rain
11:48 AM 60.8 °F - 59.0 °F 94% 29.69 in 7.0 mi NNE 3.5 mph - N/A   Overcast
12:08 PM 59.0 °F - 59.0 °F 100% 29.69 in 10.0 mi Calm Calm - N/A   Overcast
12:28 PM 60.8 °F - 59.0 °F 94% 29.70 in 10.0 mi Calm Calm - N/A   Overcast
12:48 PM 68.0 °F - 66.2 °F 94% 29.71 in 10.0 mi Calm Calm - N/A   Overcast
1:08 PM 73.4 °F - 66.2 °F 78% 29.72 in 10.0 mi SW 15.0 mph 20.7 mph N/A   Mostly Cloudy
1:28 PM 77.0 °F - 64.4 °F 65% 29.71 in 10.0 mi SW 10.4 mph 16.1 mph N/A   Scattered Clouds
1:48 PM 77.0 °F - 64.4 °F 65% 29.71 in 10.0 mi SW 10.4 mph - N/A   Mostly Cloudy
2:08 PM 77.0 °F - 64.4 °F 65% 29.71 in 10.0 mi SSW 12.7 mph 20.7 mph N/A   Mostly Cloudy
2:28 PM 77.0 °F - 64.4 °F 65% 29.72 in 10.0 mi SW 11.5 mph - N/A   Mostly Cloudy
2:48 PM 78.8 °F - 64.4 °F 61% 29.72 in 10.0 mi SSW 8.1 mph 18.4 mph N/A   Mostly Cloudy
3:08 PM 78.8 °F - 62.6 °F 57% 29.72 in 10.0 mi SW 12.7 mph 23.0 mph N/A   Mostly Cloudy
3:28 PM 80.6 °F 81.8 °F 62.6 °F 54% 29.72 in 10.0 mi SW 12.7 mph 18.4 mph N/A   Mostly Cloudy
3:48 PM 80.6 °F 81.5 °F 60.8 °F 51% 29.72 in 10.0 mi WSW 13.8 mph 24.2 mph N/A   Scattered Clouds
4:08 PM 80.6 °F 81.5 °F 60.8 °F 51% 29.72 in 10.0 mi SW 13.8 mph 25.3 mph N/A   Scattered Clouds
4:28 PM 80.6 °F 81.8 °F 62.6 °F 54% 29.73 in 10.0 mi SW 13.8 mph 21.9 mph N/A   Scattered Clouds
4:48 PM 80.6 °F 81.8 °F 62.6 °F 54% 29.73 in 10.0 mi SW 12.7 mph 20.7 mph N/A   Scattered Clouds
5:08 PM 80.6 °F 81.5 °F 60.8 °F 51% 29.73 in 10.0 mi WSW 13.8 mph 20.7 mph N/A   Clear
5:28 PM 78.8 °F - 60.8 °F 54% 29.73 in 10.0 mi WSW 10.4 mph 19.6 mph N/A   Scattered Clouds
5:48 PM 78.8 °F - 60.8 °F 54% 29.74 in 10.0 mi WSW 16.1 mph 21.9 mph N/A   Scattered Clouds
6:08 PM 78.8 °F - 60.8 °F 54% 29.75 in 10.0 mi WSW 10.4 mph 20.7 mph N/A   Clear
6:28 PM 77.0 °F - 59.0 °F 54% 29.75 in 10.0 mi WSW 12.7 mph 17.3 mph N/A   Clear
6:48 PM 77.0 °F - 59.0 °F 54% 29.77 in 10.0 mi WSW 10.4 mph 19.6 mph N/A   Clear
7:08 PM 77.0 °F - 59.0 °F 54% 29.77 in 10.0 mi WSW 9.2 mph - N/A   Clear
7:28 PM 75.2 °F - 59.0 °F 57% 29.79 in 10.0 mi WSW 10.4 mph 17.3 mph N/A   Clear
7:48 PM 73.4 °F - 59.0 °F 61% 29.79 in 10.0 mi WSW 8.1 mph - N/A   Clear
8:08 PM 73.4 °F - 59.0 °F 61% 29.79 in 10.0 mi SW 5.8 mph - N/A   Clear
8:28 PM 71.6 °F - 60.8 °F 69% 29.80 in 10.0 mi SW 5.8 mph - N/A   Clear
8:48 PM 69.8 °F - 60.8 °F 73% 29.80 in 10.0 mi SW 3.5 mph - N/A   Clear
9:08 PM 68.0 °F - 60.8 °F 78% 29.81 in 10.0 mi SSW 3.5 mph - N/A   Clear
9:28 PM 64.4 °F - 59.0 °F 83% 29.81 in 10.0 mi Calm Calm - N/A   Clear
9:48 PM 62.6 °F - 60.8 °F 94% 29.82 in 10.0 mi Calm Calm - N/A   Scattered Clouds
10:08 PM 60.8 °F - 59.0 °F 94% 29.82 in 10.0 mi Calm Calm - N/A   Scattered Clouds
10:28 PM 60.8 °F - 59.0 °F 94% 29.83 in 10.0 mi Calm Calm - N/A   Clear
10:48 PM 59.0 °F - 59.0 °F 100% 29.83 in 7.0 mi Calm Calm - N/A   Clear
11:08 PM 59.0 °F - 57.2 °F 94% 29.83 in 7.0 mi Calm Calm - N/A   Clear
11:28 PM 57.2 °F - 55.4 °F 94% 29.84 in 5.0 mi Calm Calm - N/A   Clear
11:48 PM 59.0 °F - 55.4 °F 88% 29.84 in 10.0 mi WSW 3.5 mph - N/A   Clear